SCP
0 -0 0 0 0 0 0 0 0 0 0 0 0 0 0 0 0 0 0 0 0 0 0 -0 -0 0 0 0 0 0 0 0
1 0 0 0 0 0 0 0 0 0 0 0 0 0 0 0 0 0 0 0 0 0 0 -0 -0 -0 0 0 0 0 0 0
1 0 0 0 0 0 0 0 0 0 0 0 0 0 0 0 0 0 0 0 0 0 0 0 -0 0 0 0 0 0 0 0
0 0 0 0 0 0 0 0 0 0 0 0 0 0 0 0 0 0 0 0 0 0 0 0 0 0 0 0 0 0 0 0
0 0 0 0 0 0 0 0 0 0 0 0 0 0 0 0 0 0 0 0 0 0 0 0 0 0 0 0 0 0 0 0
0 0 0 0 0 0 0 0 0 0 0 0 0 0 0 0 0 0 0 0 0 0 0 0 0 0 0 0 0 0 0 0
0 0 0 0 0 0 0 0 0 0 0 0 0 0 0 0 0 0 0 0 0 0 0 -0 0 0 0 0 0 0 0 0
0 0 0 0 0 0 0 0 0 0 0 0 0 0 0 0 0 0 0 0 0 0 0 -0 0 0 0 0 0 0 0 0
0 0 0 0 0 0 0 0 0 0 0 0 0 0 0 0 0 0 0 0 0 0 0 0 0 -0 -0 -0 0 0 0 0
0 0 0 0 0 0 0 0 0 0 0 0 0 0 0 0 0 0 0 0 0 0 0 0 0 0 0 0 0 0 0 0
0 0 0 0 0 0 -0 -0 0 0 0 0 0 0 0 0 0 0 0 0 0 0 0 0 0 0 0 0 0 0 0 0
0 0 0 0 0 0 0 0 0 0 0 0 0 0 0 0 0 0 0 0 0 0 0 0 0 0 0 0 0 0 0 0
0 0 0 0 0 0 0 0 0 0 0 0 0 0 0 0 0 0 0 0 0 0 0 0 0 0 0 0 0 0 0 0
0 0 0 0 0 0 0 0 0 0 0 0 0 0 0 0 0 0 0 0 0 0 0 0 0 0 0 0 0 0 0 0
0 0 0 0 0 0 0 0 0 0 0 0 0 0 0 0 0 0 0 0 0 0 0 0 0 0 0 0 0 0 0 0
0 0 0 0 0 0 0 0 0 0 0 0 0 0 0 0 0 0 0 0 0 0 0 0 0 0 0 0 0 0 0 0
0 0 0 0 0 0 0 0 0 0 0 0 0 0 0 0 0 0 0 0 0 0 0 0 0 0 0 0 0 0 0 0
0 0 0 0 0 0 0 0 0 0 0 0 0 0 0 0 0 0 0 0 0 0 0 0 0 0 0 0 0 0 0 0
0 0 0 0 0 0 0 0 0 0 0 0 0 0 0 0 0 0 0 0 0 0 0 0 0 0 0 0 0 0 0 0
0 0 0 -0 -0 -0 0 0 0 0 0 0 0 0 0 0 0 0 0 0 0 0 0 0 0 0 0 0 -0 -0 -0 0
Wind_Speed_500mb
69 68 62 59 55 50 45 41 34 25 20 12 5 7 9 14 20 27 30 31 36 42 44 48 51 54 56 58 58 56 53 53
82 74 67 61 57 53 52 44 34 28 19 12 7 5 2 8 16 23 25 32 39 42 48 54 56 58 65 66 67 69 67 62
82 75 68 62 60 58 56 48 43 34 27 22 17 12 4 4 8 18 29 36 42 46 52 51 49 55 53 55 59 64 70 74
85 76 72 66 65 63 58 51 45 39 34 26 19 15 6 8 17 28 38 42 44 49 46 45 53 61 58 57 60 69 77 80
95 89 79 75 70 69 61 53 44 35 25 20 13 10 5 13 24 31 34 35 39 43 48 51 54 58 63 68 71 72 70 66
94 94 83 76 72 66 55 43 32 31 26 15 9 7 10 16 22 33 34 31 34 39 46 55 62 66 63 63 63 62 60 63
97 90 81 75 66 55 42 31 26 29 16 12 10 9 10 14 25 32 32 43 47 50 64 69 70 73 67 65 63 61 64 66
88 80 70 55 42 34 23 10 22 18 16 13 11 9 12 21 33 41 40 44 52 58 72 79 78 75 68 63 63 63 61 61
74 68 59 49 39 25 4 6 12 10 9 9 9 11 21 32 44 50 46 50 58 63 73 80 77 68 63 58 57 56 55 52
64 59 53 44 34 23 7 7 5 8 9 11 11 22 33 41 52 55 51 53 59 64 75 82 72 65 57 50 48 50 48 45
64 59 49 42 25 11 8 1 11 12 9 13 24 29 37 52 57 50 49 51 57 66 74 70 62 54 48 44 40 38 41 40
56 53 48 27 7 13 17 10 16 12 17 25 33 43 50 47 45 46 45 50 61 69 66 63 58 49 46 40 36 39 37 40
40 30 15 17 7 18 19 19 15 19 23 28 36 41 42 43 42 43 49 56 62 66 62 60 50 47 44 40 41 39 37 37
26 15 4 12 19 33 22 18 18 22 24 32 39 40 40 40 43 49 54 56 60 61 55 45 43 43 41 42 40 36 35 32
20 10 5 14 18 23 24 23 23 29 35 37 38 36 37 42 48 52 49 54 57 50 46 41 36 37 37 38 34 32 31 30
26 30 30 24 17 10 8 14 18 24 27 30 34 38 44 48 51 46 45 44 42 43 39 29 27 28 27 31 32 30 30 30
43 35 25 15 4 7 16 28 37 36 37 41 44 47 52 56 50 41 36 27 36 37 30 25 24 28 35 40 40 37 33 33
34 27 18 12 20 30 33 33 33 35 37 38 39 42 40 33 31 26 24 29 32 30 24 32 33 32 36 39 34 33 31 28
25 21 21 27 36 44 47 44 40 34 31 30 32 31 26 24 23 25 27 26 30 29 22 30 28 32 31 34 37 35 28 25
12 15 30 40 48 50 49 41 32 27 24 22 23 24 26 26 25 24 25 27 29 27 23 27 26 29 23 30 41 38 29 21
Wind_Direction_500mb
174 168 165 162 160 156 156 156 153 146 137 124 68 27 23 15 17 12 4 354 354 352 348 343 342 339 338 337 332 331 328 324
181 175 171 173 169 168 168 172 175 164 162 165 176 194 261 11 11 358 334 338 342 341 340 341 341 336 332 330 329 328 327 324
182 180 179 180 181 182 184 184 181 177 185 187 188 200 203 12 326 321 333 336 335 335 334 331 328 324 319 317 317 318 319 318
183 185 179 178 179 179 176 175 179 179 180 184 191 201 225 306 325 334 336 335 332 330 322 318 317 316 311 308 309 309 309 310
192 187 183 178 176 175 173 172 172 175 186 185 181 209 283 328 340 338 333 330 330 324 323 325 326 321 311 305 303 305 308 313
193 185 181 177 174 171 167 173 187 218 209 204 230 249 315 330 334 341 337 347 344 341 342 337 333 333 325 318 315 312 310 311
188 185 181 177 175 175 181 193 223 221 215 230 239 275 299 308 332 337 337 337 338 337 341 341 335 331 326 318 313 311 311 310
182 182 179 172 168 169 161 202 209 208 220 223 233 260 292 315 325 331 333 336 338 337 340 339 333 329 327 321 315 314 313 315
182 181 171 169 173 178 195 216 195 243 244 241 248 284 308 319 323 324 329 330 336 334 336 335 331 326 325 323 321 320 317 318
184 179 174 171 178 187 239 193 270 236 236 258 286 312 312 313 319 321 324 323 334 332 332 331 326 321 321 321 323 323 324 331
177 171 172 179 186 217 222 200 242 245 266 299 308 306 308 313 310 312 315 321 325 324 327 323 319 318 319 321 321 324 326 325
167 175 183 179 234 284 215 235 249 283 310 312 322 316 309 306 303 305 311 318 320 326 324 318 317 318 319 319 318 320 320 322
170 178 197 211 318 271 279 259 287 309 318 314 307 299 294 291 295 302 308 312 319 322 316 313 315 318 319 318 318 319 314 311
147 136 221 281 265 264 245 271 273 268 282 289 284 278 278 283 291 301 311 318 324 317 313 314 317 324 324 319 322 321 319 311
130 136 216 253 228 203 215 235 261 280 286 288 278 279 287 296 308 317 317 323 322 320 318 318 323 329 331 329 330 331 328 319
135 130 129 128 133 163 231 271 294 304 294 279 285 294 298 311 319 317 317 326 336 335 331 334 337 337 344 346 342 339 335 328
122 118 105 90 82 3 340 321 310 299 294 298 298 300 308 314 319 320 322 332 345 1 359 7 5 348 343 347 339 330 324 319
109 105 92 51 357 343 335 324 314 307 306 308 313 317 320 328 333 338 341 341 346 349 351 350 353 349 350 352 355 351 346 342
57 28 14 360 353 349 346 343 340 335 330 334 334 340 354 2 356 346 341 342 345 346 347 348 355 350 356 1 4 356 347 355
97 343 351 358 355 346 341 339 339 343 349 358 18 12 1 355 348 344 337 340 341 342 343 347 351 353 357 3 7 9 15 2
Wind_Speed_850mb
69 68 62 59 55 50 45 41 34 25 20 12 5 7 9 14 20 27 30 31 36 42 44 48 51 54 56 58 58 56 53 53
82 74 67 61 57 53 52 44 34 28 19 12 7 5 2 8 16 23 25 32 39 42 48 54 56 58 65 66 67 69 67 62
82 75 68 62 60 58 56 48 43 34 27 22 17 12 4 4 8 18 29 36 42 46 52 51 49 55 53 55 59 64 70 74
85 76 72 66 65 63 58 51 45 39 34 26 19 15 6 8 17 28 38 42 44 49 46 45 53 61 58 57 60 69 77 80
95 89 79 75 70 69 61 53 44 35 25 20 13 10 5 13 24 31 34 35 39 43 48 51 54 58 63 68 71 72 70 66
94 94 83 76 72 66 55 43 32 31 26 15 9 7 10 16 22 33 34 31 34 39 46 55 62 66 63 63 63 62 60 63
97 90 81 75 66 55 42 31 26 29 16 12 10 9 10 14 25 32 32 43 47 50 64 69 70 73 67 65 63 61 64 66
88 80 70 55 42 34 23 10 22 18 16 13 11 9 12 21 33 41 40 44 52 58 72 79 78 75 68 63 63 63 61 61
74 68 59 49 39 25 4 6 12 10 9 9 9 11 21 32 44 50 46 50 58 63 73 80 77 68 63 58 57 56 55 52
64 59 53 44 34 23 7 7 5 8 9 11 11 22 33 41 52 55 51 53 59 64 75 82 72 65 57 50 48 50 48 45
64 59 49 42 25 11 8 1 11 12 9 13 24 29 37 52 57 50 49 51 57 66 74 70 62 54 48 44 40 38 41 40
56 53 48 27 7 13 17 10 16 12 17 25 33 43 50 47 45 46 45 50 61 69 66 63 58 49 46 40 36 39 37 40
40 30 15 17 7 18 19 19 15 19 23 28 36 41 42 43 42 43 49 56 62 66 62 60 50 47 44 40 41 39 37 37
26 15 4 12 19 33 22 18 18 22 24 32 39 40 40 40 43 49 54 56 60 61 55 45 43 43 41 42 40 36 35 32
20 10 5 14 18 23 24 23 23 29 35 37 38 36 37 42 48 52 49 54 57 50 46 41 36 37 37 38 34 32 31 30
26 30 30 24 17 10 8 14 18 24 27 30 34 38 44 48 51 46 45 44 42 43 39 29 27 28 27 31 32 30 30 30
43 35 25 15 4 7 16 28 37 36 37 41 44 47 52 56 50 41 36 27 36 37 30 25 24 28 35 40 40 37 33 33
34 27 18 12 20 30 33 33 33 35 37 38 39 42 40 33 31 26 24 29 32 30 24 32 33 32 36 39 34 33 31 28
25 21 21 27 36 44 47 44 40 34 31 30 32 31 26 24 23 25 27 26 30 29 22 30 28 32 31 34 37 35 28 25
12 15 30 40 48 50 49 41 32 27 24 22 23 24 26 26 25 24 25 27 29 27 23 27 26 29 23 30 41 38 29 21
Wind_Direction_850mb
174 168 165 162 160 156 156 156 153 146 137 124 68 27 23 15 17 12 4 354 354 352 348 343 342 339 338 337 332 331 328 324
181 175 171 173 169 168 168 172 175 164 162 165 176 194 261 11 11 358 334 338 342 341 340 341 341 336 332 330 329 328 327 324
182 180 179 180 181 182 184 184 181 177 185 187 188 200 203 12 326 321 333 336 335 335 334 331 328 324 319 317 317 318 319 318
183 185 179 178 179 179 176 175 179 179 180 184 191 201 225 306 325 334 336 335 332 330 322 318 317 316 311 308 309 309 309 310
192 187 183 178 176 175 173 172 172 175 186 185 181 209 283 328 340 338 333 330 330 324 323 325 326 321 311 305 303 305 308 313
193 185 181 177 174 171 167 173 187 218 209 204 230 249 315 330 334 341 337 347 344 341 342 337 333 333 325 318 315 312 310 311
188 185 181 177 175 175 181 193 223 221 215 230 239 275 299 308 332 337 337 337 338 337 341 341 335 331 326 318 313 311 311 310
182 182 179 172 168 169 161 202 209 208 220 223 233 260 292 315 325 331 333 336 338 337 340 339 333 329 327 321 315 314 313 315
182 181 171 169 173 178 195 216 195 243 244 241 248 284 308 319 323 324 329 330 336 334 336 335 331 326 325 323 321 320 317 318
184 179 174 171 178 187 239 193 270 236 236 258 286 312 312 313 319 321 324 323 334 332 332 331 326 321 321 321 323 323 324 331
177 171 172 179 186 217 222 200 242 245 266 299 308 306 308 313 310 312 315 321 325 324 327 323 319 318 319 321 321 324 326 325
167 175 183 179 234 284 215 235 249 283 310 312 322 316 309 306 303 305 311 318 320 326 324 318 317 318 319 319 318 320 320 322
170 178 197 211 318 271 279 259 287 309 318 314 307 299 294 291 295 302 308 312 319 322 316 313 315 318 319 318 318 319 314 311
147 136 221 281 265 264 245 271 273 268 282 289 284 278 278 283 291 301 311 318 324 317 313 314 317 324 324 319 322 321 319 311
130 136 216 253 228 203 215 235 261 280 286 288 278 279 287 296 308 317 317 323 322 320 318 318 323 329 331 329 330 331 328 319
135 130 129 128 133 163 231 271 294 304 294 279 285 294 298 311 319 317 317 326 336 335 331 334 337 337 344 346 342 339 335 328
122 118 105 90 82 3 340 321 310 299 294 298 298 300 308 314 319 320 322 332 345 1 359 7 5 348 343 347 339 330 324 319
109 105 92 51 357 343 335 324 314 307 306 308 313 317 320 328 333 338 341 341 346 349 351 350 353 349 350 352 355 351 346 342
57 28 14 360 353 349 346 343 340 335 330 334 334 340 354 2 356 346 341 342 345 346 347 348 355 350 356 1 4 356 347 355
97 343 351 358 355 346 341 339 339 343 349 358 18 12 1 355 348 344 337 340 341 342 343 347 351 353 357 3 7 9 15 2